Time,TemperatureF,DewpointF,PressureIn,WindDirection,WindDirectionDegrees,WindSpeedMPH,WindSpeedGustMPH,Humidity,HourlyPrecipIn,Conditions,Clouds,dailyrainin,SoftwareType,DateUTC
2013-04-23 00:12:00,17.0,-99.9,-100.00,North,-999,-999.0,-999.0,-999,0.00,,,0.10,,2013-04-23 06:12:00,
2013-04-23 00:22:00,17.0,-99.9,-100.00,North,-999,-999.0,-999.0,-999,0.00,,,0.10,,2013-04-23 06:22:00,
2013-04-23 00:33:00,17.0,-99.9,-100.00,North,-999,-999.0,-999.0,-999,0.00,,,0.10,,2013-04-23 06:33:00,
2013-04-23 00:42:00,17.0,-99.9,-100.00,North,-999,-999.0,-999.0,-999,0.00,,,0.10,,2013-04-23 06:42:00,
2013-04-23 02:11:00,12.0,-99.9,-100.00,North,-999,-999.0,-999.0,-999,-99.99,,,0.09,,2013-04-23 08:11:00,
2013-04-23 02:22:00,12.0,-99.9,-100.00,North,-999,-999.0,-999.0,-999,-99.99,,,0.09,,2013-04-23 08:22:00,
2013-04-23 02:32:00,12.0,-99.9,-100.00,North,-999,-999.0,-999.0,-999,-99.99,,,0.09,,2013-04-23 08:32:00,
2013-04-23 02:42:00,12.0,-99.9,-100.00,North,-999,-999.0,-999.0,-999,-99.99,,,0.09,,2013-04-23 08:42:00,
2013-04-23 05:12:00,8.0,-99.9,-100.00,North,-999,-999.0,-999.0,-999,-99.99,,,-99.99,,2013-04-23 11:12:00,
2013-04-23 05:22:00,8.0,-99.9,-100.00,North,-999,-999.0,-999.0,-999,-99.99,,,-99.99,,2013-04-23 11:22:00,
2013-04-23 05:33:00,8.0,-99.9,-100.00,North,-999,-999.0,-999.0,-999,-99.99,,,-99.99,,2013-04-23 11:33:00,
2013-04-23 05:43:00,8.0,-99.9,-100.00,North,-999,-999.0,-999.0,-999,-99.99,,,-99.99,,2013-04-23 11:43:00,
2013-04-23 06:13:00,8.0,-99.9,-100.00,North,-999,-999.0,-999.0,-999,0.00,,,0.05,,2013-04-23 12:13:00,
2013-04-23 06:22:00,8.0,-99.9,-100.00,North,-999,-999.0,-999.0,-999,0.00,,,0.05,,2013-04-23 12:22:00,
2013-04-23 06:32:00,8.0,-99.9,-100.00,North,-999,-999.0,-999.0,-999,0.00,,,0.05,,2013-04-23 12:32:00,
2013-04-23 06:42:00,8.0,-99.9,-100.00,North,-999,-999.0,-999.0,-999,0.00,,,0.05,,2013-04-23 12:42:00,
2013-04-23 07:12:00,6.0,-99.9,-100.00,North,-999,-999.0,-999.0,-999,0.00,,,-99.99,,2013-04-23 13:12:00,
2013-04-23 07:22:00,6.0,-99.9,-100.00,North,-999,-999.0,-999.0,-999,0.00,,,-99.99,,2013-04-23 13:22:00,
2013-04-23 07:32:00,6.0,-99.9,-100.00,North,-999,-999.0,-999.0,-999,0.00,,,-99.99,,2013-04-23 13:32:00,
2013-04-23 07:42:00,6.0,-99.9,-100.00,North,-999,-999.0,-999.0,-999,0.00,,,-99.99,,2013-04-23 13:42:00,
2013-04-23 08:12:00,8.0,-99.9,-100.00,North,-999,-999.0,-999.0,-999,0.00,,,0.06,,2013-04-23 14:12:00,
2013-04-23 08:22:00,8.0,-99.9,-100.00,North,-999,-999.0,-999.0,-999,0.00,,,0.06,,2013-04-23 14:22:00,
2013-04-23 08:32:00,8.0,-99.9,-100.00,North,-999,-999.0,-999.0,-999,0.00,,,0.06,,2013-04-23 14:32:00,
2013-04-23 08:42:00,8.0,-99.9,-100.00,North,-999,-999.0,-999.0,-999,0.00,,,0.06,,2013-04-23 14:42:00,
2013-04-23 09:12:00,14.0,-99.9,-100.00,North,-999,-999.0,-999.0,-999,0.00,,,-99.99,,2013-04-23 15:12:00,
2013-04-23 09:22:00,14.0,-99.9,-100.00,North,-999,-999.0,-999.0,-999,0.00,,,-99.99,,2013-04-23 15:22:00,
2013-04-23 09:32:00,14.0,-99.9,-100.00,North,-999,-999.0,-999.0,-999,0.00,,,-99.99,,2013-04-23 15:32:00,
2013-04-23 09:43:00,14.0,-99.9,-100.00,North,-999,-999.0,-999.0,-999,0.00,,,-99.99,,2013-04-23 15:43:00,
2013-04-23 10:13:00,18.0,-99.9,-100.00,North,-999,-999.0,-999.0,-999,0.00,,,-99.99,,2013-04-23 16:13:00,
2013-04-23 10:23:00,18.0,-99.9,-100.00,North,-999,-999.0,-999.0,-999,0.00,,,-99.99,,2013-04-23 16:23:00,
2013-04-23 10:34:00,18.0,-99.9,-100.00,North,-999,-999.0,-999.0,-999,0.00,,,-99.99,,2013-04-23 16:34:00,
2013-04-23 10:43:00,18.0,-99.9,-100.00,North,-999,-999.0,-999.0,-999,0.00,,,-99.99,,2013-04-23 16:43:00,
2013-04-23 11:12:00,23.0,-99.9,-100.00,North,-999,-999.0,-999.0,-999,0.00,,,0.05,,2013-04-23 17:12:00,
2013-04-23 11:22:00,23.0,-99.9,-100.00,North,-999,-999.0,-999.0,-999,0.00,,,0.05,,2013-04-23 17:22:00,
2013-04-23 11:33:00,23.0,-99.9,-100.00,North,-999,-999.0,-999.0,-999,0.00,,,0.05,,2013-04-23 17:33:00,
2013-04-23 11:43:00,23.0,-99.9,-100.00,North,-999,-999.0,-999.0,-999,0.00,,,0.05,,2013-04-23 17:43:00,
2013-04-23 12:12:00,27.0,-99.9,-100.00,North,-999,-999.0,-999.0,-999,0.00,,,0.06,,2013-04-23 18:12:00,
2013-04-23 12:22:00,27.0,-99.9,-100.00,North,-999,-999.0,-999.0,-999,0.00,,,0.06,,2013-04-23 18:22:00,
2013-04-23 12:32:00,27.0,-99.9,-100.00,North,-999,-999.0,-999.0,-999,0.00,,,0.06,,2013-04-23 18:32:00,
2013-04-23 12:42:00,27.0,-99.9,-100.00,North,-999,-999.0,-999.0,-999,0.00,,,0.06,,2013-04-23 18:42:00,
2013-04-23 13:11:00,32.0,-99.9,-100.00,North,-999,-999.0,-999.0,-999,-99.99,,,-99.99,,2013-04-23 19:11:00,
2013-04-23 13:22:00,32.0,-99.9,-100.00,North,-999,-999.0,-999.0,-999,-99.99,,,-99.99,,2013-04-23 19:22:00,
2013-04-23 13:33:00,32.0,-99.9,-100.00,North,-999,-999.0,-999.0,-999,-99.99,,,-99.99,,2013-04-23 19:33:00,
2013-04-23 13:42:00,32.0,-99.9,-100.00,North,-999,-999.0,-999.0,-999,-99.99,,,-99.99,,2013-04-23 19:42:00,
2013-04-23 14:11:00,34.0,-99.9,-100.00,North,-999,-999.0,-999.0,-999,0.00,,,0.04,,2013-04-23 20:11:00,
2013-04-23 14:22:00,34.0,-99.9,-100.00,North,-999,-999.0,-999.0,-999,0.00,,,0.04,,2013-04-23 20:22:00,
2013-04-23 14:32:00,34.0,-99.9,-100.00,North,-999,-999.0,-999.0,-999,0.00,,,0.04,,2013-04-23 20:32:00,
2013-04-23 14:42:00,34.0,-99.9,-100.00,North,-999,-999.0,-999.0,-999,0.00,,,0.04,,2013-04-23 20:42:00,
2013-04-23 15:12:00,37.0,-99.9,-100.00,North,-999,-999.0,-999.0,-999,0.00,,,0.04,,2013-04-23 21:12:00,
2013-04-23 15:22:00,37.0,-99.9,-100.00,North,-999,-999.0,-999.0,-999,0.00,,,0.04,,2013-04-23 21:22:00,
2013-04-23 15:33:00,37.0,-99.9,-100.00,North,-999,-999.0,-999.0,-999,0.00,,,0.04,,2013-04-23 21:33:00,
2013-04-23 15:43:00,37.0,-99.9,-100.00,North,-999,-999.0,-999.0,-999,0.00,,,0.04,,2013-04-23 21:43:00,
2013-04-23 16:12:00,39.0,-99.9,-100.00,North,-999,-999.0,-999.0,-999,0.00,,,0.04,,2013-04-23 22:12:00,
2013-04-23 16:23:00,39.0,-99.9,-100.00,North,-999,-999.0,-999.0,-999,0.00,,,0.04,,2013-04-23 22:23:00,
2013-04-23 16:33:00,39.0,-99.9,-100.00,North,-999,-999.0,-999.0,-999,0.00,,,0.04,,2013-04-23 22:33:00,
2013-04-23 16:42:00,39.0,-99.9,-100.00,North,-999,-999.0,-999.0,-999,0.00,,,0.04,,2013-04-23 22:42:00,
2013-04-23 17:12:00,40.0,-99.9,-100.00,North,-999,-999.0,-999.0,-999,0.00,,,0.04,,2013-04-23 23:12:00,
2013-04-23 17:22:00,40.0,-99.9,-100.00,North,-999,-999.0,-999.0,-999,0.00,,,0.04,,2013-04-23 23:22:00,
2013-04-23 17:32:00,40.0,-99.9,-100.00,North,-999,-999.0,-999.0,-999,0.00,,,0.04,,2013-04-23 23:32:00,
2013-04-23 17:42:00,40.0,-99.9,-100.00,North,-999,-999.0,-999.0,-999,0.00,,,0.04,,2013-04-23 23:42:00,
2013-04-23 18:12:00,39.0,-99.9,-100.00,North,-999,-999.0,-999.0,-999,0.00,,,0.01,,2013-04-24 00:12:00,
2013-04-23 18:22:00,39.0,-99.9,-100.00,North,-999,-999.0,-999.0,-999,0.00,,,0.01,,2013-04-24 00:22:00,
2013-04-23 18:32:00,39.0,-99.9,-100.00,North,-999,-999.0,-999.0,-999,0.00,,,0.01,,2013-04-24 00:32:00,
2013-04-23 18:42:00,39.0,-99.9,-100.00,North,-999,-999.0,-999.0,-999,0.00,,,0.01,,2013-04-24 00:42:00,
2013-04-23 19:12:00,36.0,-99.9,-100.00,North,-999,-999.0,-999.0,-999,0.00,,,-99.99,,2013-04-24 01:12:00,
2013-04-23 19:22:00,36.0,-99.9,-100.00,North,-999,-999.0,-999.0,-999,0.00,,,-99.99,,2013-04-24 01:22:00,
2013-04-23 19:32:00,36.0,-99.9,-100.00,North,-999,-999.0,-999.0,-999,0.00,,,-99.99,,2013-04-24 01:32:00,
2013-04-23 19:43:00,36.0,-99.9,-100.00,North,-999,-999.0,-999.0,-999,0.00,,,-99.99,,2013-04-24 01:43:00,
2013-04-23 19:45:00,34.0,-99.9,-100.00,North,-999,-999.0,-999.0,-999,0.00,,,-99.99,,2013-04-24 01:45:00,
2013-04-23 20:20:00,34.0,-99.9,-100.00,North,-999,-999.0,-999.0,-999,0.00,,,-99.99,,2013-04-24 02:20:00,
2013-04-23 20:31:00,34.0,-99.9,-100.00,North,-999,-999.0,-999.0,-999,0.00,,,-99.99,,2013-04-24 02:31:00,
2013-04-23 20:42:00,34.0,-99.9,-100.00,North,-999,-999.0,-999.0,-999,0.00,,,-99.99,,2013-04-24 02:42:00,
2013-04-23 20:45:00,32.0,-99.9,-100.00,North,-999,-999.0,-999.0,-999,0.00,,,-99.99,,2013-04-24 02:45:00,
2013-04-23 21:19:00,32.0,-99.9,-100.00,North,-999,-999.0,-999.0,-999,0.00,,,-99.99,,2013-04-24 03:19:00,
2013-04-23 21:34:00,32.0,-99.9,-100.00,North,-999,-999.0,-999.0,-999,0.00,,,-99.99,,2013-04-24 03:34:00,
2013-04-23 22:12:00,30.0,-99.9,-100.00,North,-999,-999.0,-999.0,-999,0.00,,,-99.99,,2013-04-24 04:12:00,
2013-04-23 22:23:00,30.0,-99.9,-100.00,North,-999,-999.0,-999.0,-999,0.00,,,-99.99,,2013-04-24 04:23:00,
2013-04-23 22:33:00,30.0,-99.9,-100.00,North,-999,-999.0,-999.0,-999,0.00,,,-99.99,,2013-04-24 04:33:00,
2013-04-23 22:43:00,30.0,-99.9,-100.00,North,-999,-999.0,-999.0,-999,0.00,,,-99.99,,2013-04-24 04:43:00,
2013-04-23 23:13:00,30.0,-99.9,-100.00,North,-999,-999.0,-999.0,-999,0.00,,,-99.99,,2013-04-24 05:13:00,
2013-04-23 23:22:00,30.0,-99.9,-100.00,North,-999,-999.0,-999.0,-999,0.00,,,-99.99,,2013-04-24 05:22:00,
2013-04-23 23:33:00,30.0,-99.9,-100.00,North,-999,-999.0,-999.0,-999,0.00,,,-99.99,,2013-04-24 05:33:00,
2013-04-23 23:42:00,30.0,-99.9,-100.00,North,-999,-999.0,-999.0,-999,0.00,,,-99.99,,2013-04-24 05:42:00,